Regional Weather Roundup
Issued by NWS

Home | Current Version | Previous Version | Graphics & Text | Print | Product List | Glossary On
Versions: 1 2 3 4 5 6 7 8 9 10 11 12 13 14 15 16 17 18 19 20 21 22 23 24 25 26 27 28 29 30 31 32 33 34 35 36 37 38 39 40 41 42 43 44 45 46 47 48 49 50
499
ASUS45 KSLC 211310
RWRUT

UTAH REGIONAL WEATHER ROUNDUP
NATIONAL WEATHER SERVICE SALT LAKE CITY UT
700 AM MDT SAT OCT 21 2017

UTZ001>011-023>025-211400-

NORTHERN UTAH

CITY           SKY/WX    TMP DP  RH WIND       PRES   REMARKS
BRIGHAM CITY   PTCLDY    30  24  77 CALM      30.15R
HILL AFB       CLOUDY    37  26  63 CALM      30.13R
LOGAN          PTCLDY    32  26  78 CALM      30.11R
OGDEN          PTCLDY    35  27  72 S5        30.12R WCI  31
SALT LAKE CITY MOCLDY    40  30  67 W6        30.13R
TOOELE VALLEY  PTCLDY    28  23  80 S7        30.16R WCI  21
WENDOVER       PTCLDY    39  21  48 VRB3      30.16R
WEST JORDAN    PTCLDY    34  25  70 CALM      30.14R

$$

UTZ011>015-024>027-211400-

CENTRAL/NORTHEAST UTAH

CITY           SKY/WX    TMP DP  RH WIND       PRES   REMARKS
PROVO AIRPORT  PTCLDY    30  25  81 SE3       30.15R
MOAB/CANYONLAN CLEAR     40  17  39 VRB3      30.08R
DELTA          PTCLDY    25  18  74 SE3       30.15R
PRICE          CLEAR     28  18  66 N7        30.10R WCI  21
ROOSEVELT      CLEAR     32  14  47 CALM      30.10R
VERNAL         CLEAR     28  16  60 W3        30.08R

$$

UTZ013>016-019>022-027-211400-

SOUTHERN UTAH

CITY           SKY/WX    TMP DP  RH WIND       PRES   REMARKS
BRYCE CANYON   CLEAR     23  13  65 W9        30.11R WCI  13
CEDAR CITY     CLEAR     22  15  75 N3        30.12R
MILFORD        CLEAR     23  13  65 CALM      30.15R
ST GEORGE      MOSUNNY   46  16  30 SE3       30.08R
HANKSVILLE     CLEAR     37  18  44 E5        30.13S WCI  34
BLANDING         N/A     37  13  37 NW9       30.13R WCI  30

$$

REGIONAL REPORTS     COLORADO/ARIZONA

CITY           SKY/WX    TMP DP  RH WIND       PRES   REMARKS
CRAIG, CO      CLEAR     22  18  85 W7        30.05  WCI  13
GRAND JUNCTION CLEAR     37  17  44 NW3       30.08R
RIFLE, CO      CLEAR     35  27  72 CALM      30.07R
MONTROSE, CO   CLEAR     35  13  40 N6        30.09R WCI  30
CORTEZ, CO     CLEAR     38  13  35 N5        30.05R WCI  34
COLORADO CITY    N/A     30  19  64 CALM      30.12R
PAGE, AZ       CLEAR     48  15  26 W7        30.05R
GRAND CANYON   CLEAR     28  23  81 NE6       30.10R WCI  22
KINGMAN, AZ    CLEAR     49  16  26 E14       30.03R
FLAGSTAFF, AZ  CLEAR     34  33  96 CALM      30.10R

$$

REGIONAL REPORTS    NEVADA/IDAHO/WYOMING

CITY           SKY/WX    TMP DP  RH WIND       PRES   REMARKS
LAS VEGAS, NV  CLEAR     59  13  16 NE16      30.05R
ELY, NY        PTCLDY    16   9  74 S12       30.17R WCI   3
ELKO, NV       CLEAR     22  17  81 CALM      30.16R
POCATELLO, ID  CLEAR     34  27  75 SW17      30.10R WCI  23
BURLEY, ID     CLEAR     34  25  69 SW14      30.12R WCI  25
FORT BRIDGER,  PTSUNNY   27  21  76 W12       30.09S WCI  17
EVANSTON, WY   CLEAR     23  19  85 SW9       30.07S WCI  13
ROCK SPRINGS,  CLEAR     26  17  68 W16G25    30.04R WCI  14

$$




USA.gov is the U.S. government's official web portal to all federal, state and local government web resources and services.